Terminal Aerodrome Forecast
Issued by NWS

Home | Current Version | Previous Version | Text Only | Print | Product List | Glossary On
Versions: 1 2 3 4 5 6 7 8 9 10 11 12 13 14 15 16 17 18 19 20 21 22 23 24 25
000
FTUS44 KOUN 242332
TAFGAG
TAF
KGAG 242332Z 2500/2524 17014KT P6SM SCT120
     FM251400 21018G26KT P6SM FEW200=

USA.gov is the U.S. government's official web portal to all federal, state and local government web resources and services.